Temp
67 69 70 70 70 70 71 72 72 72 73 71 70 69 67 67 66 66 68 68 68 69 68 68 67 66 65 64 65 63 62 62 61 61 60 61 62 62 62 64 63 63 66
65 67 67 68 68 68 69 70 70 70 71 70 70 68 68 66 65 65 66 67 68 68 67 65 65 66 65 65 64 63 61 61 61 59 57 55 59 60 62 62 63 62 63
65 64 65 66 66 67 67 67 68 69 70 70 69 68 68 66 64 64 64 65 67 66 66 65 64 64 62 61 61 62 62 61 61 62 62 58 56 59 61 62 61 62 62
65 64 64 64 66 66 66 66 67 67 69 70 69 68 66 64 64 63 64 64 66 65 64 63 62 60 60 59 60 60 59 61 58 61 62 60 61 58 58 61 61 63 64
63 63 64 64 65 65 65 64 64 65 66 66 67 66 64 64 63 61 61 61 61 63 63 62 59 57 57 56 56 57 56 57 56 57 58 59 59 61 59 57 59 62 63
62 63 64 64 63 62 62 63 63 62 63 65 65 66 65 63 62 64 63 62 58 60 59 59 57 56 55 55 54 55 56 55 54 53 55 55 56 58 59 57 58 58 61
62 62 63 62 61 60 60 61 61 59 60 61 61 61 63 62 59 57 55 55 54 54 55 55 55 54 55 55 54 53 53 53 53 52 52 53 54 56 57 58 56 56 59
64 63 63 61 60 60 59 59 60 58 58 59 56 58 61 60 57 55 55 54 54 54 55 55 55 55 55 55 53 52 52 52 53 53 53 53 53 53 54 55 55 55 56
63 62 62 61 61 60 59 59 59 57 59 58 58 57 58 57 56 54 54 54 54 57 55 55 54 54 53 53 51 50 50 50 52 51 50 51 51 52 53 53 53 53 53
63 62 62 61 61 60 59 58 60 60 61 59 60 58 56 57 55 54 53 53 53 54 54 54 53 53 52 52 49 48 50 50 49 50 49 48 48 48 50 52 52 51 53
61 62 62 62 61 61 61 60 61 60 60 59 57 57 57 56 55 55 53 53 53 53 54 54 53 53 52 51 49 49 51 50 48 48 48 48 48 46 46 48 50 49 50
62 62 60 60 60 61 63 63 62 63 61 61 61 59 58 56 55 54 53 53 53 53 53 53 53 53 52 51 50 50 50 49 48 48 47 48 52 45 44 44 46 47 49
60 60 60 60 61 62 64 64 63 63 64 62 60 58 56 55 54 55 53 53 53 52 52 52 52 52 51 50 50 50 49 48 47 47 46 46 46 44 43 44 45 46 51
60 60 59 59 62 63 64 64 65 65 64 62 60 57 56 55 54 54 53 53 52 51 50 50 51 51 50 50 50 49 46 46 46 46 46 46 45 44 44 46 45 47 45
58 59 59 59 60 61 63 64 65 65 64 63 60 58 56 54 53 52 52 52 51 50 50 49 48 48 50 53 46 46 44 43 43 44 46 47 50 55 53 49 46 45 44
60 61 61 61 62 62 63 64 63 64 64 62 60 57 55 54 53 52 50 49 48 47 47 46 47 45 51 50 51 48 42 43 42 41 43 44 49 49 51 52 53 52 45
61 62 62 63 65 63 63 62 62 62 61 58 57 56 55 52 50 51 49 48 45 44 43 44 44 43 43 48 48 50 42 41 41 41 42 44 50 46 45 49 51 51 52
62 64 64 60 56 56 56 59 60 59 55 53 54 54 53 51 50 50 47 47 43 42 41 42 42 41 44 47 46 47 43 41 42 49 49 44 42 44 45 47 45 47 51
59 60 57 53 53 51 52 51 51 51 50 49 49 49 49 47 47 48 47 46 42 40 40 41 41 40 40 45 45 47 44 46 49 52 50 48 47 46 45 47 46 45 49
54 53 52 51 49 50 50 49 48 48 47 47 47 47 47 46 45 46 46 43 39 40 41 41 41 43 41 44 47 46 45 47 48 51 51 48 48 44 43 43 44 43 42
47 48 48 47 48 49 49 48 47 46 47 47 46 45 45 43 44 44 42 41 40 38 38 39 40 41 43 43 46 46 47 48 48 48 48 49 46 44 43 43 41 44 43
45 46 44 44 46 47 47 46 44 46 45 45 44 43 43 46 45 41 39 39 37 36 37 37 39 42 44 47 46 45 44 46 45 45 46 46 44 43 42 42 42 42 43
44 45 44 43 44 45 45 43 44 44 44 43 42 42 43 42 39 38 37 36 36 36 37 40 43 44 47 46 46 44 44 45 44 44 45 44 43 42 43 43 43 43 37
44 44 44 42 42 43 44 43 45 44 43 40 39 40 38 39 38 38 37 37 37 37 39 41 41 42 42 42 45 44 44 45 45 46 45 44 44 43 43 43 44 45 44
43 43 43 42 42 43 43 45 45 44 41 40 39 38 36 35 35 36 35 36 37 39 40 41 41 40 39 42 41 40 40 41 41 41 41 41 41 41 41 42 43 43 43
45 44 44 43 43 44 43 43 43 40 38 37 36 35 34 37 39 39 39 41 41 41 40 39 39 41 40 39 38 38 37 37 38 37 37 38 39 39 40 40 41 42 43
MSLP
1009.85 1009.57 1009.21 1009.24 1009.41 1009.71 1009.89 1010.24 1011.14 1011.54 1012.11 1012.94 1013.89 1014.88 1015.34 1015.94 1015.89 1015.71 1015.67 1015.57 1015.56 1015.67 1016.09 1016.49 1016.81 1016.85 1016.65 1016.96 1016.90 1017.02 1017.37 1016.95 1016.61 1016.57 1016.47 1015.82 1015.42 1015.42 1015.29 1014.93 1014.95 1014.87 1014.42
1010.25 1009.94 1009.73 1009.75 1009.87 1010.13 1010.35 1010.60 1010.85 1011.35 1011.86 1012.67 1013.58 1014.27 1015.37 1016.31 1016.15 1016.16 1016.11 1016.01 1015.88 1016.05 1016.36 1016.73 1017.04 1017.02 1017.62 1017.25 1017.16 1017.38 1017.12 1017.17 1017.01 1017.10 1017.19 1016.71 1015.91 1015.52 1014.99 1014.71 1014.57 1014.40 1014.14
1009.24 1009.83 1010.07 1010.11 1010.29 1010.63 1010.96 1011.24 1011.35 1011.65 1012.16 1012.68 1013.49 1014.41 1015.37 1016.01 1016.33 1016.34 1016.61 1016.51 1016.52 1016.79 1017.20 1017.05 1017.44 1017.27 1017.60 1017.81 1017.70 1017.32 1017.23 1017.32 1017.21 1017.16 1017.33 1017.19 1016.89 1016.34 1015.10 1014.33 1014.22 1014.03 1013.85
1009.35 1009.84 1010.24 1010.67 1010.94 1011.26 1011.33 1011.61 1011.74 1011.94 1012.26 1012.83 1013.55 1014.37 1014.53 1015.61 1016.47 1016.79 1017.03 1017.05 1017.05 1017.16 1017.30 1017.57 1017.54 1017.71 1017.91 1018.05 1017.83 1017.67 1017.68 1017.57 1017.80 1017.44 1017.27 1017.35 1017.27 1016.72 1015.70 1015.09 1014.36 1013.81 1013.46
1009.71 1009.69 1009.97 1010.52 1011.07 1011.46 1011.70 1011.92 1012.11 1012.26 1012.50 1012.94 1013.57 1014.33 1015.02 1015.89 1016.58 1017.17 1017.33 1017.55 1017.54 1017.60 1017.75 1017.84 1018.20 1018.37 1018.33 1018.37 1018.20 1018.25 1018.29 1018.37 1018.45 1018.32 1017.97 1017.62 1017.30 1017.20 1016.85 1015.71 1014.96 1013.84 1012.96
1009.67 1010.23 1010.51 1010.91 1011.32 1011.63 1011.77 1011.90 1012.24 1012.87 1012.95 1013.33 1013.64 1014.16 1014.94 1016.01 1016.83 1017.33 1017.56 1017.65 1018.17 1018.21 1018.35 1018.43 1018.59 1018.61 1018.67 1018.82 1018.92 1018.89 1018.79 1018.72 1018.54 1018.60 1018.55 1018.55 1018.32 1017.80 1017.29 1016.60 1015.63 1014.71 1013.12
1009.16 1010.02 1010.43 1010.91 1011.56 1011.95 1012.02 1011.98 1012.25 1013.08 1013.34 1013.55 1014.12 1014.62 1015.22 1015.99 1016.78 1017.31 1017.76 1018.32 1018.53 1018.70 1018.83 1018.78 1018.92 1019.00 1018.89 1018.92 1018.97 1019.11 1019.09 1018.97 1018.86 1018.83 1018.88 1018.86 1018.83 1018.48 1017.84 1017.15 1016.43 1015.35 1013.82
1008.35 1009.33 1010.24 1010.99 1011.41 1011.53 1011.63 1011.95 1012.42 1013.14 1013.67 1014.00 1014.71 1015.28 1015.73 1016.28 1016.81 1017.39 1017.73 1018.23 1018.71 1018.91 1018.93 1019.10 1019.10 1019.17 1019.13 1019.16 1019.25 1019.36 1019.32 1019.25 1019.15 1019.08 1019.05 1019.08 1019.01 1018.78 1018.50 1018.05 1017.42 1015.95 1014.86
1007.12 1008.40 1009.72 1010.73 1011.18 1011.39 1011.59 1011.93 1012.71 1013.27 1013.85 1014.43 1014.63 1015.39 1015.93 1016.61 1017.10 1017.64 1017.94 1018.16 1018.79 1019.01 1018.88 1019.08 1019.27 1019.26 1019.32 1019.44 1019.48 1019.65 1019.62 1019.56 1019.51 1019.54 1019.45 1019.42 1019.27 1019.02 1018.78 1018.43 1018.05 1017.44 1016.17
1007.55 1008.51 1009.17 1010.18 1011.14 1011.61 1012.21 1012.68 1012.84 1013.33 1013.74 1014.53 1014.73 1015.24 1016.11 1016.71 1017.09 1017.57 1018.05 1018.33 1018.71 1019.03 1018.95 1019.27 1019.49 1019.55 1019.43 1019.61 1019.83 1019.89 1019.76 1019.76 1019.82 1019.83 1019.77 1019.65 1019.47 1019.18 1018.93 1018.65 1018.24 1017.88 1017.36
1006.45 1007.59 1009.12 1010.25 1011.12 1011.67 1012.27 1012.79 1012.91 1013.17 1014.23 1014.43 1014.86 1015.60 1016.41 1016.83 1017.06 1017.45 1017.94 1017.88 1018.43 1018.99 1019.16 1019.34 1019.58 1019.81 1019.64 1019.70 1019.75 1019.91 1019.97 1020.02 1020.09 1020.01 1019.97 1019.84 1019.60 1019.35 1018.99 1018.69 1018.33 1018.01 1017.60
1007.87 1008.95 1010.31 1011.55 1012.23 1012.22 1012.48 1012.85 1013.50 1013.07 1013.22 1014.04 1014.35 1015.56 1016.15 1017.22 1017.26 1017.43 1017.53 1017.83 1018.15 1018.68 1019.09 1019.29 1019.42 1019.83 1020.02 1019.76 1019.85 1020.05 1020.10 1020.17 1020.35 1020.24 1020.11 1019.96 1019.63 1019.43 1019.10 1018.79 1018.46 1018.05 1017.56
1008.13 1009.23 1010.52 1011.51 1012.47 1012.60 1012.45 1012.70 1012.79 1013.62 1013.77 1014.11 1014.41 1015.17 1016.06 1016.99 1017.43 1017.50 1017.69 1017.81 1018.19 1018.63 1019.08 1019.22 1019.45 1019.53 1020.18 1019.95 1020.10 1020.25 1020.31 1020.26 1020.33 1020.33 1020.30 1020.06 1019.71 1019.43 1019.05 1018.70 1018.30 1017.79 1017.27
1007.29 1007.93 1008.78 1009.29 1012.35 1013.22 1011.96 1011.55 1013.15 1013.59 1013.71 1013.83 1014.27 1014.97 1015.82 1016.55 1017.23 1017.53 1017.94 1018.16 1018.37 1018.79 1019.15 1019.39 1019.34 1019.46 1019.87 1020.05 1020.02 1020.13 1020.26 1020.35 1020.20 1020.35 1020.30 1019.86 1019.53 1019.30 1018.81 1018.38 1018.00 1017.51 1017.13
1006.93 1007.29 1007.63 1009.17 1009.57 1010.07 1010.89 1010.31 1011.23 1012.43 1012.65 1013.58 1014.19 1014.81 1015.76 1016.38 1017.43 1018.02 1018.29 1018.71 1018.87 1019.29 1019.54 1019.64 1019.71 1019.72 1019.95 1020.01 1019.91 1019.97 1020.01 1020.10 1019.96 1020.00 1020.03 1019.64 1019.22 1018.78 1018.28 1017.96 1017.62 1017.38 1016.99
1006.48 1006.63 1007.20 1007.98 1008.75 1009.17 1010.26 1010.49 1011.22 1012.43 1012.54 1013.48 1014.20 1014.83 1015.88 1016.42 1017.55 1018.65 1019.28 1019.78 1019.71 1019.59 1019.60 1019.96 1020.23 1020.12 1020.03 1019.70 1019.73 1019.74 1019.89 1019.84 1019.82 1019.71 1019.47 1019.17 1018.92 1018.56 1018.15 1017.66 1017.18 1016.92 1016.70
1006.13 1006.43 1006.66 1007.03 1007.58 1008.47 1009.23 1010.08 1011.59 1012.73 1013.05 1014.05 1015.23 1015.66 1016.23 1017.47 1018.17 1018.56 1018.94 1019.71 1020.61 1020.55 1020.24 1020.08 1020.35 1020.39 1020.02 1019.91 1019.75 1019.60 1019.50 1019.45 1019.29 1019.33 1019.16 1018.95 1018.82 1018.35 1018.34 1017.53 1017.11 1016.69 1016.28
1006.16 1006.15 1006.71 1007.98 1009.11 1009.91 1010.63 1011.26 1012.04 1013.10 1013.84 1014.77 1015.92 1016.40 1017.50 1018.31 1018.77 1018.95 1019.49 1019.57 1020.52 1020.90 1021.03 1020.79 1020.36 1020.27 1020.19 1019.81 1019.65 1019.54 1019.19 1018.83 1018.75 1018.42 1018.38 1018.66 1018.67 1018.52 1018.21 1017.72 1017.33 1017.07 1016.56
1006.78 1006.87 1007.76 1008.89 1010.01 1010.98 1011.84 1012.57 1013.73 1014.46 1015.32 1016.27 1016.94 1017.19 1017.71 1018.56 1019.51 1019.17 1019.24 1019.62 1020.01 1020.73 1021.04 1020.76 1020.36 1020.12 1019.79 1019.55 1019.36 1018.95 1019.08 1018.45 1018.18 1018.00 1017.84 1018.21 1018.12 1018.34 1018.15 1017.98 1017.72 1017.31 1016.89
1008.93 1009.26 1009.89 1010.65 1011.39 1012.54 1012.69 1013.61 1014.96 1015.63 1016.35 1017.05 1017.73 1018.17 1019.15 1019.18 1020.00 1020.27 1019.79 1020.11 1020.40 1020.95 1021.41 1020.45 1020.33 1020.07 1019.63 1019.29 1018.67 1018.37 1018.51 1018.15 1018.03 1017.83 1017.57 1017.73 1017.75 1017.85 1017.95 1017.96 1017.78 1017.53 1017.27
1011.74 1011.85 1012.21 1012.96 1014.06 1014.45 1014.24 1015.09 1016.22 1017.04 1018.38 1017.77 1017.71 1019.05 1019.07 1019.10 1019.96 1021.33 1020.05 1020.59 1021.13 1020.72 1020.67 1020.61 1019.99 1019.47 1019.36 1018.97 1018.56 1018.25 1017.96 1017.64 1017.63 1017.50 1017.39 1017.39 1017.38 1017.46 1017.53 1017.55 1017.55 1017.37 1017.24
1013.69 1013.62 1013.55 1014.79 1015.95 1016.49 1016.65 1016.44 1017.40 1018.61 1019.17 1018.83 1019.54 1019.63 1019.75 1020.67 1020.24 1020.89 1020.53 1020.61 1020.97 1020.77 1020.66 1019.72 1019.28 1018.95 1018.74 1018.48 1018.33 1017.97 1017.69 1017.40 1017.28 1017.13 1017.01 1017.09 1017.23 1017.27 1017.23 1017.17 1016.97 1016.91 1016.75
1015.51 1015.75 1015.36 1016.33 1017.21 1018.17 1018.92 1020.46 1019.31 1019.06 1020.22 1020.79 1020.41 1020.61 1020.29 1020.68 1020.85 1020.61 1020.82 1020.93 1020.77 1020.60 1019.81 1019.37 1018.63 1018.63 1018.43 1018.31 1017.95 1017.74 1017.37 1017.00 1016.75 1016.63 1016.63 1016.67 1016.67 1016.66 1016.58 1016.47 1016.41 1016.36 1016.29
1017.28 1017.11 1018.15 1016.98 1018.14 1018.87 1020.24 1020.03 1022.81 1020.08 1021.53 1021.00 1021.75 1020.27 1021.63 1021.31 1021.11 1020.97 1020.89 1020.48 1020.44 1020.69 1019.83 1018.69 1018.71 1018.61 1018.44 1018.21 1017.79 1017.47 1017.09 1016.83 1016.60 1016.37 1016.21 1016.20 1016.13 1015.97 1015.81 1015.73 1015.63 1015.51 1015.49
1018.87 1018.87 1019.67 1017.93 1019.47 1020.23 1020.99 1021.95 1021.98 1022.05 1023.13 1021.75 1021.95 1021.01 1021.59 1021.67 1021.04 1020.98 1021.34 1021.59 1020.91 1019.43 1018.73 1019.19 1019.16 1018.59 1018.25 1017.85 1017.71 1017.57 1017.19 1016.90 1016.63 1016.33 1015.94 1015.62 1015.39 1015.19 1015.03 1014.85 1014.74 1014.65 1014.63
1020.21 1019.83 1019.75 1020.13 1020.58 1021.55 1021.98 1022.50 1022.17 1022.44 1022.51 1022.09 1021.93 1022.41 1022.33 1022.43 1022.28 1021.72 1021.42 1020.61 1019.06 1018.77 1019.33 1019.43 1019.20 1018.58 1018.21 1017.89 1017.63 1017.35 1017.04 1016.72 1016.38 1015.89 1015.39 1014.89 1014.57 1014.36 1014.21 1014.03 1013.90 1013.86 1013.85
Wind_Speed
3 3 5 7 9 7 10 11 10 8 7 3 4 4 4 4 3 4 6 7 7 8 6 5 4 4 4 4 4 3 5 4 3 2 3 4 4 4 4 4 4 4 7
8 6 5 4 5 6 7 7 9 7 6 4 4 5 6 3 4 4 6 6 8 8 7 5 5 6 4 5 4 2 1 1 3 2 0 4 5 3 4 3 4 6 4
18 11 9 7 7 7 6 6 6 8 7 10 9 9 9 5 3 5 4 5 7 7 5 7 4 6 4 3 4 4 5 3 2 1 1 2 3 3 4 6 4 5 3
9 9 9 9 10 7 6 6 6 7 7 8 9 10 8 7 3 4 3 5 5 7 6 6 6 6 4 5 5 5 4 4 4 2 1 2 3 3 4 4 5 6 6
8 13 13 11 8 10 10 7 7 6 7 7 9 9 10 8 7 5 8 7 5 7 6 7 6 6 4 4 6 6 6 4 2 3 3 3 2 1 3 6 9 9 5
9 8 7 9 8 6 8 9 10 6 7 9 9 13 15 12 8 6 7 6 3 4 6 6 6 5 5 6 4 4 6 5 4 3 3 2 3 4 3 4 7 8 7
14 12 15 12 10 8 8 9 12 8 7 10 9 11 12 11 10 7 5 6 3 3 5 5 6 5 4 5 5 6 6 5 4 4 2 2 2 3 4 3 5 4 4
17 18 15 12 11 11 9 11 12 10 9 10 9 8 11 7 6 5 5 5 4 4 4 6 6 6 6 5 6 4 4 5 5 7 6 3 4 3 3 4 6 7 3
21 21 16 12 11 10 11 13 13 10 10 11 11 9 9 8 8 7 6 5 5 4 6 6 6 6 6 6 6 4 5 5 4 5 5 4 3 4 4 3 3 4 6
17 17 16 14 10 9 7 7 11 14 12 11 10 10 8 9 8 7 7 7 6 4 7 6 6 6 6 6 6 4 3 5 4 4 6 5 4 4 4 4 4 3 3
21 19 14 12 11 9 10 10 11 14 11 10 9 11 8 8 8 8 7 7 7 6 6 6 6 6 6 6 5 5 4 5 5 5 6 6 5 4 4 4 3 3 3
12 12 9 7 7 10 11 11 9 12 15 12 13 11 10 7 8 8 7 7 8 6 6 5 6 6 5 6 6 5 5 5 5 5 6 6 7 6 5 4 5 4 3
14 10 9 8 10 12 12 11 11 11 11 11 12 11 9 8 7 8 7 7 7 7 5 6 5 5 3 5 5 4 3 4 4 5 6 6 6 6 4 5 5 4 4
18 18 17 17 12 6 12 11 9 11 12 12 12 11 11 9 8 7 6 6 6 7 6 5 5 5 4 3 3 3 3 4 4 5 5 6 6 7 7 6 6 6 5
13 16 20 19 21 21 19 17 17 15 14 13 11 11 8 7 6 5 5 5 6 5 5 5 5 4 1 0 3 3 3 3 4 4 5 5 9 15 11 5 6 5 3
18 18 19 21 23 22 16 12 12 12 11 11 11 9 8 8 7 6 6 5 5 5 6 5 3 2 1 2 5 3 1 3 4 4 5 5 9 9 14 13 11 7 4
19 20 21 22 21 17 15 14 10 7 7 7 6 9 11 9 7 7 7 6 5 3 4 3 3 2 2 3 4 6 1 4 5 6 3 4 4 6 7 10 10 9 8
14 17 14 6 6 6 9 9 9 10 12 14 13 14 12 10 8 8 6 6 3 4 3 4 3 3 5 7 7 7 5 4 6 6 2 2 4 4 6 7 7 6 4
6 4 8 13 12 14 14 18 17 14 15 14 13 12 12 10 5 5 5 3 5 3 3 3 5 5 6 10 10 7 6 5 5 5 3 2 3 4 7 5 6 7 3
16 16 16 16 17 14 18 20 16 15 15 13 12 10 10 9 5 3 3 3 2 2 4 5 5 8 7 11 9 6 3 4 4 8 5 9 6 6 3 3 3 5 5
21 20 21 20 16 14 17 20 15 15 10 14 12 8 9 7 4 2 2 0 3 2 3 5 6 5 6 7 10 11 4 5 6 6 5 4 5 7 7 5 4 3 4
23 23 23 22 18 17 15 17 17 10 9 12 11 6 6 2 3 1 1 1 3 4 6 4 5 4 6 8 9 10 9 8 5 6 4 3 5 6 9 7 9 9 8
16 17 20 21 18 17 14 12 9 10 7 7 4 0 4 2 3 4 5 3 4 4 4 4 4 4 5 4 9 12 12 11 4 4 6 9 10 11 9 10 10 9 3
14 17 14 22 16 16 11 12 4 9 4 6 4 5 4 5 2 1 2 4 5 4 4 5 6 6 6 6 5 5 5 7 7 8 6 6 10 11 10 9 8 6 5
11 13 12 16 15 12 10 4 4 5 4 6 4 7 5 5 6 6 3 4 6 3 6 6 6 7 7 7 9 9 7 6 8 11 7 7 7 7 6 6 6 6 6
11 12 12 13 12 10 9 7 6 5 5 6 6 4 1 2 4 5 5 5 10 13 12 12 9 7 10 13 14 12 13 13 13 7 7 7 7 7 7 7 7 6 8
Wind_Direction
185 131 101 103 108 96 125 139 140 162 147 130 137 122 97 85 57 47 66 75 81 76 67 61 51 37 50 65 52 17 344 2 348 35 312 305 293 296 284 271 252 264 262
179 167 146 116 89 116 103 118 127 138 130 117 124 123 121 94 85 61 46 49 67 69 78 86 69 52 3 29 19 344 9 360 22 66 106 343 331 333 294 277 265 269 258
172 170 164 143 121 113 115 113 118 121 117 115 106 104 114 114 80 67 71 58 74 63 59 70 59 73 56 49 26 25 32 21 335 27 86 329 290 310 312 310 309 291 275
174 161 158 149 146 138 120 125 119 115 118 128 127 142 133 127 83 101 95 80 69 77 70 71 68 59 56 41 34 26 24 29 20 340 108 227 258 304 318 317 307 301 285
192 175 163 155 148 146 146 132 115 104 109 117 129 120 112 109 117 110 106 86 64 78 76 72 68 64 56 45 43 32 29 25 32 13 335 346 316 313 299 320 321 317 298
173 165 143 143 143 139 135 131 121 107 108 118 114 124 123 129 127 123 110 99 79 76 67 71 70 63 54 47 43 36 40 20 18 20 25 41 341 341 319 308 319 302 306
170 167 166 158 150 150 139 124 120 114 110 106 107 119 127 125 126 133 126 119 98 65 54 61 53 45 43 49 40 38 30 13 23 21 3 32 16 324 310 307 314 310 307
171 173 169 159 159 153 141 127 123 117 110 113 105 113 124 129 125 126 123 112 102 95 76 68 61 50 45 46 38 34 21 17 30 28 23 17 12 6 349 329 330 324 302
174 166 157 160 159 152 139 132 129 119 121 127 125 120 121 125 129 122 112 114 108 105 83 68 59 50 50 42 30 25 24 30 30 31 24 21 353 1 353 346 334 319 326
162 161 160 160 153 138 134 131 139 142 144 139 131 127 128 128 131 128 120 114 109 94 81 71 60 51 50 43 44 20 16 54 27 29 19 13 346 350 348 342 338 329 304
169 160 155 150 153 152 156 159 146 145 139 150 134 133 135 141 137 130 136 121 112 100 83 78 66 46 37 32 36 9 50 54 33 19 17 356 344 342 333 324 323 324 335
140 134 130 142 169 169 163 165 167 163 158 160 144 145 138 151 141 142 137 134 123 111 111 98 80 49 26 22 22 57 52 48 30 12 5 343 342 330 323 322 311 292 298
125 115 126 173 188 191 175 179 170 177 161 152 152 149 148 163 162 150 144 137 128 129 125 113 106 92 30 55 63 69 60 49 38 9 353 328 327 317 311 308 298 287 295
158 162 162 161 196 251 196 163 187 182 176 164 161 159 166 165 159 145 145 140 139 138 137 129 107 80 68 85 68 77 51 25 16 348 322 308 310 296 293 293 287 299 308
181 180 166 175 191 190 204 184 184 187 175 172 169 170 154 134 117 117 131 124 116 115 108 98 81 56 105 125 112 83 63 23 346 323 297 312 314 322 317 302 284 294 290
185 185 182 179 192 192 194 187 182 191 169 173 177 149 126 106 103 92 78 76 88 96 95 85 80 79 301 132 98 91 295 302 307 301 305 319 334 350 340 333 325 276 258
184 187 190 193 193 188 183 175 171 171 154 104 95 103 94 92 90 93 93 82 57 62 81 64 17 345 340 161 337 321 269 264 272 273 300 325 337 360 325 334 352 349 359
203 199 199 145 99 100 92 100 98 105 94 91 93 83 81 78 81 87 88 93 72 43 11 356 355 329 299 286 285 285 283 267 271 264 226 255 309 340 357 346 344 349 14
285 188 113 110 101 97 98 90 84 90 90 85 79 88 98 86 62 94 86 72 66 9 317 302 327 309 284 277 267 305 280 270 266 301 207 225 253 321 360 343 338 325 346
54 68 76 82 85 91 98 92 91 87 84 89 84 80 59 78 64 19 72 47 65 283 275 310 282 284 284 284 285 291 276 275 288 299 289 212 242 236 274 308 307 316 330
67 72 68 69 69 79 86 83 82 78 68 80 78 94 90 89 83 279 73 55 266 281 298 263 273 283 287 296 310 303 288 284 285 286 285 276 271 258 233 250 251 251 290
67 65 69 61 53 52 58 85 79 73 81 72 68 71 90 161 132 124 61 298 306 306 278 281 280 268 272 281 284 293 289 279 272 272 267 253 262 253 252 261 245 262 299
71 75 81 79 67 57 60 44 82 99 78 72 141 61 69 59 11 20 351 314 299 284 302 280 315 307 307 286 287 290 292 285 253 230 241 243 254 258 266 256 253 270 267
60 71 69 82 81 75 67 65 306 62 97 108 24 71 35 27 11 261 322 357 352 300 287 341 323 306 298 293 291 284 296 304 289 279 277 270 263 254 250 254 254 246 251
77 74 85 78 82 74 67 57 60 88 90 77 47 50 34 9 5 357 319 262 250 313 349 321 301 301 297 305 342 333 321 310 299 298 279 270 261 254 248 247 249 243 231
63 63 60 79 76 73 69 50 46 65 58 46 32 15 7 2 355 340 328 321 354 348 328 330 340 332 326 336 325 323 319 311 305 290 278 269 257 254 257 255 255 250 248